Date,TemperatureHighF,TemperatureAvgF,TemperatureLowF,DewpointHighF,DewpointAvgF,DewpointLowF,HumidityHigh,HumidityAvg,HumidityLow,PressureMaxIn,PressureMinIn,WindSpeedMaxMPH,WindSpeedAvgMPH,GustSpeedMaxMPH,PrecipitationSumIn
2013-1-1,37.4,31.9,27.0,36.7,31.1,26.2,98,97,94,30.03,29.88,5,0,9,0.00
2013-1-2,45.1,36.3,29.7,33.5,20.9,13.1,98,57,37,29.88,29.74,13,2,14,0.00
2013-1-3,45.0,35.5,26.2,31.4,16.8,9.6,82,47,35,29.74,29.65,10,2,12,0.12
2013-1-4,49.8,42.1,36.3,47.5,39.4,31.4,96,90,80,29.85,29.71,8,0,9,0.04
2013-1-5,44.6,41.6,38.8,39.2,31.5,27.3,94,68,57,29.74,29.65,5,0,6,0.04
2013-1-6,47.3,41.4,38.8,40.0,36.9,33.7,94,84,64,29.71,29.53,0,0,0,0.24
2013-1-7,48.9,44.5,39.6,48.4,43.9,38.0,98,97,94,29.71,29.38,8,0,9,0.67
2013-1-8,50.0,45.1,40.5,49.5,44.6,39.9,98,98,98,29.71,29.26,16,2,16,0.59
2013-1-9,49.3,38.9,33.4,48.7,38.4,32.9,98,98,98,29.47,29.21,8,1,8,1.22
2013-1-10,37.9,32.9,25.9,37.2,32.4,25.4,98,98,98,29.65,29.47,6,0,6,0.16
2013-1-11,35.1,28.7,24.4,34.4,28.2,24.0,98,98,98,29.85,29.65,3,0,3,0.04
2013-1-12,32.2,24.9,20.7,31.5,23.2,17.4,98,93,87,29.97,29.85,0,0,0,0.00
2013-1-13,34.3,26.3,18.5,33.8,24.1,14.8,98,91,85,30.03,29.97,0,0,0,0.00
2013-1-14,34.9,32.9,30.6,33.3,31.4,28.8,97,94,93,30.09,30.00,0,0,0,0.00
2013-1-15,41.7,33.8,25.7,40.5,32.0,23.7,98,93,81,30.24,30.09,3,0,5,0.08
2013-1-16,37.9,29.1,23.2,37.4,27.9,22.2,98,95,92,30.21,30.06,5,0,5,0.00
2013-1-17,37.4,29.6,24.4,36.7,29.0,24.0,98,97,95,30.06,29.83,5,0,6,0.00
2013-1-18,34.5,29.8,24.4,34.0,29.3,24.0,98,98,98,29.88,29.80,0,0,0,0.00
2013-1-19,35.1,32.3,29.5,34.4,31.4,29.0,98,96,91,29.91,29.85,0,0,0,0.00
2013-1-20,37.2,32.8,30.2,36.0,31.8,29.7,98,96,91,29.91,29.80,0,0,0,0.00
2013-1-21,37.0,31.5,28.0,35.0,30.1,26.3,98,94,88,29.80,29.68,0,0,0,0.00
2013-1-22,40.1,32.0,23.5,38.8,30.6,22.6,98,95,89,29.71,29.44,5,0,5,0.00
2013-1-23,43.3,39.7,36.1,40.0,33.7,25.4,96,80,51,29.68,29.38,10,1,11,0.39
2013-1-24,47.1,41.5,38.7,45.4,38.8,33.4,98,90,72,29.74,29.59,9,1,9,0.16
2013-1-25,53.4,44.4,36.7,49.9,41.8,34.6,98,91,70,29.59,29.44,6,0,6,0.04
2013-1-26,42.1,40.0,38.8,41.0,39.0,37.7,98,96,95,29.56,29.41,8,0,10,0.67
2013-1-27,43.2,40.0,37.0,42.6,39.5,36.5,98,98,98,29.59,29.53,9,0,9,0.35
2013-1-28,40.3,39.2,36.9,39.8,38.7,36.3,98,98,98,29.62,29.53,6,0,6,1.22
2013-1-29,45.3,42.9,40.3,44.8,42.4,39.8,98,98,98,29.88,29.62,6,0,8,1.34
2013-1-30,51.6,46.7,43.3,51.1,46.2,42.8,98,98,98,29.91,29.85,5,0,6,0.31
2013-1-31,50.4,47.4,46.2,49.8,46.9,45.7,98,98,98,29.91,29.83,6,0,8,0.12
2013-2-1,54.3,45.0,35.2,50.1,42.7,34.1,98,92,67,29.94,29.85,8,0,9,0.00
2013-2-2,45.5,38.9,32.5,43.8,37.7,32.0,98,95,89,29.91,29.80,6,0,6,0.00
2013-2-3,52.3,43.8,37.9,49.2,41.8,37.1,98,93,76,29.85,29.74,5,0,6,0.04
2013-2-4,52.9,46.6,43.5,48.6,42.4,38.7,98,86,62,29.74,29.41,9,0,9,0.00
2013-2-5,53.4,46.2,43.5,47.2,40.7,34.6,96,82,50,29.47,29.38,10,1,13,0.08
2013-2-6,49.8,45.5,42.8,40.8,37.2,31.6,87,73,52,29.59,29.35,0,0,0,0.08
2013-2-7,50.5,41.3,30.4,39.4,32.4,25.0,92,72,43,29.74,29.35,8,0,9,0.16
2013-2-8,46.9,37.1,27.7,41.7,31.5,25.3,97,81,57,29.85,29.74,5,0,6,0.00
2013-2-9,45.1,41.0,38.7,42.4,38.1,33.9,95,89,80,29.88,29.80,4,0,5,0.16
2013-2-10,45.1,39.6,33.1,44.1,35.2,30.5,98,85,61,29.91,29.85,6,0,6,0.00
2013-2-11,46.2,41.6,38.7,42.6,38.2,34.5,95,88,78,29.88,29.85,6,0,7,0.04
2013-2-12,50.0,45.5,40.3,48.7,43.6,39.0,98,93,83,29.94,29.83,6,0,8,0.04
2013-2-13,50.9,45.9,41.7,46.7,41.0,37.0,96,84,64,30.03,29.85,0,0,0,0.08
2013-2-14,52.5,45.8,41.2,45.8,41.1,37.9,96,84,63,30.09,30.03,0,0,0,0.04
2013-2-15,53.1,43.4,36.5,46.7,38.8,33.9,98,85,54,30.09,29.71,8,1,8,0.00
2013-2-16,47.3,42.6,35.6,46.8,40.2,34.0,98,91,71,29.74,29.68,15,1,15,0.75
2013-2-17,48.6,40.8,34.2,42.3,35.2,30.1,96,81,56,29.80,29.65,8,0,8,0.04
2013-2-18,49.8,39.8,32.0,40.2,32.2,28.9,95,76,48,29.65,29.29,7,0,8,0.00
2013-2-19,50.2,40.5,32.4,36.5,29.8,24.9,85,67,39,29.56,29.29,11,2,13,0.00
2013-2-20,48.9,38.9,32.0,39.5,33.7,28.9,93,82,52,29.59,29.53,9,0,9,0.00
2013-2-21,43.3,40.3,37.0,41.0,37.0,33.8,94,88,78,29.62,29.53,9,0,10,0.04
2013-2-22,45.9,40.1,34.3,40.3,36.3,29.2,94,86,66,29.59,29.23,13,2,13,0.28
2013-2-23,48.0,40.3,34.9,43.6,34.3,27.8,98,81,48,29.91,29.44,12,1,12,0.39
2013-2-24,50.5,43.0,37.6,34.2,32.2,29.0,84,67,45,29.91,29.50,10,2,13,0.00
2013-2-25,52.0,43.1,36.7,39.0,31.6,22.2,92,66,37,29.83,29.44,18,1,18,0.08
2013-2-26,50.5,41.4,30.9,36.8,27.7,23.4,87,61,38,29.88,29.74,10,1,11,0.00
2013-2-27,54.3,43.5,38.8,41.4,35.6,27.7,92,76,37,29.85,29.74,8,1,10,0.24
2013-2-28,50.4,44.3,39.2,49.8,43.3,36.8,98,96,91,29.85,29.74,10,1,10,0.43
2013-3-1,58.1,53.4,50.2,50.9,46.6,42.8,98,79,58,29.88,29.80,15,3,22,0.00
2013-3-2,59.4,48.2,34.9,44.3,39.3,31.9,94,74,46,29.83,29.62,15,2,15,0.28
2013-3-3,49.5,38.8,28.9,42.7,31.8,22.9,98,79,40,29.85,29.74,9,0,11,0.04
2013-3-4,55.6,38.2,25.7,39.1,25.1,18.0,97,64,30,29.85,29.47,10,2,12,0.00
2013-3-5,56.5,45.6,39.0,35.3,25.2,17.2,76,46,33,29.47,29.26,8,1,10,0.00
2013-3-6,43.5,39.9,35.8,40.0,36.4,29.9,95,87,76,29.44,29.15,8,1,9,0.43
2013-3-7,50.7,40.5,32.4,48.5,38.5,30.6,98,93,78,29.65,29.44,6,1,8,0.24
2013-3-8,50.5,37.6,27.9,43.3,32.0,27.1,98,82,51,29.80,29.62,11,1,11,0.00
2013-3-9,53.1,38.3,27.0,43.2,30.3,25.2,98,76,42,30.03,29.80,9,1,10,0.00
2013-3-10,54.1,42.5,33.1,38.4,33.9,28.4,92,73,40,30.03,29.97,8,0,8,0.00
2013-3-11,58.1,46.0,34.9,43.2,35.4,30.2,93,70,36,30.00,29.71,8,0,8,0.00
2013-3-12,54.7,50.4,46.0,48.9,44.8,39.6,97,82,57,29.71,29.59,10,1,13,0.35
2013-3-13,54.9,50.8,49.1,49.9,48.3,45.7,98,91,78,29.74,29.65,0,0,0,0.24
2013-3-14,54.1,50.2,47.5,52.4,46.4,40.0,98,87,67,29.71,29.56,0,0,0,0.00
2013-3-15,62.1,53.1,48.0,48.7,43.5,38.8,91,72,45,29.77,29.68,8,0,9,0.00
2013-3-16,54.9,44.3,34.2,44.0,38.4,30.8,93,81,47,29.68,29.41,13,1,13,0.24
2013-3-17,50.4,40.9,36.0,41.9,33.7,25.5,98,78,40,29.74,29.50,10,1,10,0.04
2013-3-23,49.3,38.2,31.6,22.5,19.3,16.6,68,48,33,29.85,29.85,6,0,7,0.00
2013-3-24,56.8,39.7,27.0,35.1,24.6,19.1,89,59,30,29.85,29.68,6,0,8,0.00
2013-3-25,59.5,43.7,29.5,31.4,25.0,21.1,80,52,27,29.68,29.50,9,1,11,0.00
2013-3-26,60.6,47.7,36.1,34.7,30.7,26.1,73,54,33,29.56,29.50,10,1,11,0.00
2013-3-27,60.4,48.4,39.9,38.3,34.9,32.1,81,62,37,29.53,29.50,6,0,7,0.00
2013-3-28,65.5,50.8,37.8,48.1,38.0,33.7,92,65,35,29.71,29.53,9,1,10,0.00
2013-3-29,61.7,49.2,37.4,47.9,38.0,33.6,96,69,37,29.80,29.71,10,1,10,0.00
2013-3-30,65.1,48.7,35.2,46.3,37.3,33.1,97,68,38,29.83,29.65,10,2,10,0.00
2013-3-31,65.8,50.0,37.0,45.3,36.8,33.9,95,65,35,29.65,29.44,9,1,10,0.00
2013-4-1,63.5,51.5,39.0,49.7,39.7,34.5,92,67,41,29.71,29.50,9,1,11,0.00
2013-4-2,60.4,52.2,46.9,44.8,41.1,37.6,81,67,45,29.74,29.71,8,0,9,0.00
2013-4-3,63.3,51.9,43.3,48.4,40.1,34.9,92,67,38,29.74,29.50,9,1,10,0.00
2013-4-4,57.2,51.8,47.3,51.8,45.9,40.1,95,80,63,29.50,29.21,11,1,11,0.24
2013-4-5,61.9,52.0,46.8,51.7,45.4,38.6,98,80,43,29.41,29.29,12,1,15,0.59
2013-4-6,57.2,48.8,44.1,45.9,39.8,33.6,95,73,45,29.47,29.26,12,2,13,0.16
2013-4-7,49.6,43.3,38.8,44.5,38.8,33.9,94,84,70,29.44,29.06,8,1,10,1.18
2013-4-8,58.3,46.6,41.9,49.1,40.5,33.9,97,81,47,29.83,29.44,8,0,8,0.20
2013-4-9,60.4,50.4,40.6,47.0,37.8,33.5,94,65,39,29.88,29.74,9,0,10,0.00
2013-4-10,57.2,50.5,44.4,49.7,38.3,31.1,93,65,40,29.80,29.47,20,2,20,0.08
2013-4-11,56.1,46.6,43.3,43.2,37.1,28.9,90,71,39,29.85,29.80,11,1,11,0.08
2013-4-12,51.1,42.4,38.8,40.2,36.6,30.1,93,81,49,29.50,29.23,10,3,14,0.28
2013-4-13,51.1,42.1,36.5,42.4,34.8,24.6,89,75,57,29.53,29.26,13,1,13,0.16
2013-4-14,57.0,45.0,36.5,45.2,33.7,26.5,97,69,35,29.56,29.47,11,1,11,0.24
2013-4-15,59.9,45.2,34.5,40.6,33.4,29.0,87,66,35,29.74,29.50,13,2,13,0.00
2013-4-16,57.9,43.6,29.7,46.3,31.6,26.0,98,68,32,29.94,29.74,10,1,11,0.00
2013-4-17,62.2,46.8,32.5,42.7,32.4,29.1,93,61,30,30.00,29.94,10,2,11,0.00
2013-4-18,52.5,46.8,42.6,45.2,38.1,32.2,93,72,49,30.00,29.77,9,0,9,0.20
2013-4-19,56.1,49.6,46.9,54.2,47.7,45.0,98,93,78,29.77,29.62,10,1,10,0.55
2013-4-20,60.8,49.2,45.9,53.8,44.6,37.4,97,86,50,29.83,29.74,8,0,10,0.31
2013-4-21,58.1,47.1,38.3,46.8,38.9,29.5,96,76,38,29.91,29.80,13,1,13,0.43
2013-4-22,60.6,45.5,30.9,40.8,29.4,20.1,96,59,28,30.06,29.91,12,2,12,0.00
2013-4-23,63.1,48.0,31.8,40.0,28.9,21.9,86,52,26,29.97,29.80,11,2,13,0.00
2013-4-24,68.4,51.3,34.3,43.8,31.3,26.0,91,52,24,29.88,29.62,12,2,12,0.00
2013-4-25,72.5,54.3,37.2,42.2,33.7,26.6,81,50,25,29.71,29.59,10,1,10,0.00
2013-4-26,67.5,54.9,41.4,48.3,39.7,33.4,93,60,36,29.80,29.71,9,2,10,0.00
2013-4-27,57.0,52.0,48.7,46.2,37.8,30.0,91,60,40,29.77,29.71,10,1,12,0.16
2013-4-28,60.8,51.0,45.0,49.3,41.0,31.6,96,72,43,29.77,29.50,13,1,15,0.12
2013-4-29,56.1,47.3,39.9,41.8,28.1,22.4,86,50,29,29.71,29.47,25,6,27,0.04
2013-4-30,61.0,45.0,33.8,37.4,25.5,16.0,78,49,24,30.00,29.71,12,2,14,0.08
2013-5-1,68.0,47.4,29.1,38.1,27.6,20.6,87,50,27,30.12,30.00,11,2,12,0.00
2013-5-2,68.2,52.8,38.1,41.5,32.8,26.1,83,49,28,30.09,29.91,13,2,14,0.00
2013-5-3,74.8,54.8,37.6,46.0,36.0,29.6,89,53,25,29.94,29.80,13,2,14,0.00
2013-5-4,79.7,59.3,42.1,49.8,37.2,29.1,92,49,22,29.80,29.56,14,3,14,0.00
2013-5-5,87.4,62.9,45.1,46.4,39.7,32.6,78,46,22,29.56,29.35,12,2,12,0.00
2013-5-6,86.4,65.3,49.6,46.6,40.9,37.5,73,45,22,29.41,29.32,13,1,13,0.00
2013-5-7,77.2,58.9,49.1,48.4,43.7,37.4,86,60,31,29.56,29.38,10,2,11,0.00
2013-5-8,78.1,56.6,46.8,50.0,44.9,39.8,92,68,31,29.71,29.56,6,0,8,0.00
2013-5-9,76.1,55.5,45.3,51.1,44.7,38.4,96,71,31,29.77,29.68,10,1,10,0.00
2013-5-10,76.5,59.6,44.1,55.1,44.3,41.2,96,62,30,29.77,29.68,9,2,11,0.00
2013-5-11,84.7,64.9,50.9,51.5,44.6,38.6,84,52,24,29.74,29.56,9,1,11,0.00
2013-5-12,75.0,62.8,56.5,57.5,49.9,42.8,94,66,34,29.65,29.56,10,1,11,0.12
2013-5-13,66.2,56.6,44.6,57.9,47.0,33.9,90,71,35,29.74,29.50,15,2,20,0.28
2013-5-14,71.1,54.6,42.4,41.5,35.7,28.2,80,52,25,29.77,29.68,10,1,12,0.00
2013-5-15,71.1,54.6,40.8,48.9,39.4,34.4,89,61,28,29.68,29.56,11,1,13,0.04
2013-5-16,51.3,51.2,50.9,49.3,48.7,48.1,93,91,89,29.59,29.53,0,0,0,0.00
2013-5-19,74.5,55.8,47.7,43.2,39.2,35.5,81,56,28,29.91,29.91,6,1,8,0.08
2013-5-20,68.7,55.3,41.5,51.3,41.6,37.6,93,64,34,29.91,29.47,10,2,12,0.00
2013-5-21,57.6,49.5,46.0,52.4,44.5,40.1,95,84,62,29.47,29.35,8,0,10,0.51
2013-5-22,55.8,48.4,43.0,46.1,42.6,38.5,95,81,61,29.50,29.41,8,0,8,0.16
2013-5-23,65.7,50.9,41.5,51.5,41.4,34.4,97,74,35,29.56,29.47,10,1,12,0.04
2013-5-24,68.9,54.6,42.3,50.9,40.0,35.5,95,62,33,29.59,29.53,7,0,8,0.00
2013-5-25,69.1,57.2,48.2,48.5,40.6,33.5,87,57,32,29.59,29.53,8,1,10,0.00
2013-5-26,70.2,57.1,49.1,52.9,45.9,41.0,88,68,42,29.56,29.50,6,0,8,0.04
2013-5-27,65.7,56.6,49.6,52.1,48.4,44.2,92,76,46,29.53,29.29,9,2,9,0.04
2013-5-28,70.7,58.0,50.5,51.2,44.9,37.8,94,65,33,29.44,29.32,10,1,14,0.00
2013-5-29,57.7,52.0,48.9,49.2,46.0,43.3,94,80,61,29.53,29.23,7,0,8,0.43
2013-5-30,70.5,55.5,47.3,53.5,43.5,35.8,97,69,33,29.80,29.53,13,1,13,0.00
2013-5-31,77.0,57.9,47.7,47.4,39.9,32.8,80,55,23,29.88,29.80,10,1,10,0.00
2013-6-1,74.7,60.3,47.3,46.9,41.5,38.2,80,53,28,29.80,29.62,11,2,13,0.00
2013-6-2,81.1,60.0,51.1,50.0,42.8,36.3,91,57,24,29.65,29.62,10,2,10,0.00
2013-6-3,81.9,59.7,45.5,52.8,44.3,40.3,92,60,25,29.68,29.62,10,2,11,0.00
2013-6-4,88.3,62.7,46.6,58.7,44.8,40.7,94,57,23,29.71,29.59,11,2,11,0.00
2013-6-5,76.1,62.5,49.8,50.8,45.7,38.9,83,57,34,29.68,29.59,12,2,12,0.00
2013-6-6,80.2,63.1,48.0,58.3,42.7,30.2,94,52,23,29.62,29.59,12,2,13,0.00
2013-6-7,73.9,61.6,50.7,45.3,38.7,30.4,70,44,28,29.71,29.59,9,1,9,0.00
2013-6-8,72.3,59.2,48.9,43.8,40.6,38.1,75,52,32,29.74,29.68,10,2,10,0.00
2013-6-9,71.2,57.6,47.8,47.8,38.8,34.2,81,52,31,29.68,29.59,16,3,16,0.00
2013-6-10,77.5,57.2,43.3,46.8,39.4,33.9,87,55,24,29.62,29.44,13,2,13,0.00
2013-6-11,68.7,56.8,48.6,51.5,41.6,35.7,81,59,33,29.65,29.50,10,1,10,0.04
2013-6-12,72.0,57.6,47.7,45.7,41.7,37.5,81,59,31,29.68,29.65,10,1,11,0.00
2013-6-13,74.8,60.0,50.7,53.7,43.6,36.4,94,59,29,29.77,29.68,13,2,15,0.16
2013-6-14,78.3,60.4,50.9,45.9,41.5,36.6,73,53,25,29.80,29.62,9,1,10,0.00
2013-6-15,75.9,60.7,44.6,56.7,43.9,40.8,94,58,33,29.62,29.47,10,2,11,0.00
2013-6-16,73.4,61.8,50.0,59.2,48.9,44.0,94,66,37,29.65,29.56,10,1,11,0.08
2013-6-17,91.6,63.1,48.7,57.7,47.7,37.1,97,64,18,29.65,29.44,11,1,11,0.04
2013-6-18,83.5,63.4,51.3,60.8,45.7,36.3,95,58,20,29.53,29.44,11,1,12,0.00
2013-6-19,78.4,60.4,52.7,54.5,45.1,39.4,86,60,31,29.56,29.47,9,1,10,0.12
2013-6-20,57.2,53.8,51.6,54.8,50.3,42.1,95,88,59,29.68,29.53,8,0,10,1.26
2013-6-21,82.9,61.5,51.4,58.5,47.5,38.6,98,66,25,29.74,29.68,8,0,9,0.04
2013-6-22,87.6,64.7,49.3,60.0,45.9,37.5,95,56,20,29.68,29.41,9,1,10,0.00
2013-6-23,75.9,65.5,56.5,57.4,51.6,45.4,84,63,34,29.41,29.18,8,0,8,0.00
2013-6-24,71.6,62.5,57.2,59.3,52.1,43.8,96,72,38,29.26,29.15,10,1,14,0.16
2013-6-25,74.5,61.7,54.7,59.3,52.1,43.3,93,74,36,29.41,29.23,12,1,13,0.35
2013-6-26,78.4,63.9,52.7,61.5,52.4,43.6,98,71,32,29.65,29.41,9,1,12,0.00
2013-6-27,79.2,66.6,57.9,61.0,54.4,49.7,92,68,38,29.77,29.62,8,1,9,0.08
2013-6-28,93.7,72.3,59.4,64.8,55.5,49.0,94,60,27,29.77,29.62,9,1,10,0.00
2013-6-29,91.4,72.5,62.1,60.0,54.4,49.2,83,57,27,29.68,29.56,11,1,11,0.00
2013-6-30,95.4,73.5,59.7,57.0,54.0,49.8,83,54,26,29.59,29.41,10,2,12,0.00
2013-7-1,88.9,72.0,61.0,56.2,51.2,47.2,72,50,28,29.59,29.47,10,2,10,0.00
2013-7-2,85.8,66.8,56.8,54.5,47.2,39.5,79,52,23,29.68,29.59,11,2,14,0.00
2013-7-3,81.5,64.1,53.8,49.3,42.2,35.7,66,46,29,29.71,29.62,12,3,13,0.00
2013-7-4,82.8,63.6,53.1,48.7,44.6,38.8,78,53,24,29.68,29.59,8,1,10,0.00
2013-7-5,85.6,64.7,52.0,51.9,45.8,40.3,83,54,23,29.59,29.50,8,1,11,0.00
2013-7-6,88.0,65.2,53.2,53.8,48.0,43.0,84,57,24,29.53,29.44,12,2,12,0.00
2013-7-7,87.6,67.3,54.3,57.6,47.9,43.8,83,53,24,29.50,29.44,10,2,10,0.00
2013-7-8,88.5,66.5,56.1,55.7,49.2,43.7,82,57,24,29.65,29.50,9,1,10,0.00
2013-7-9,84.7,66.9,55.4,57.5,49.3,40.2,91,57,29,29.68,29.59,10,2,11,0.00
2013-7-10,77.5,63.3,54.3,50.3,44.9,41.2,74,53,32,29.62,29.53,10,2,11,0.00
2013-7-11,74.8,60.9,51.1,44.8,40.9,37.4,66,50,28,29.65,29.56,13,2,13,0.00
2013-7-12,72.7,59.1,48.4,47.9,42.2,37.6,80,56,33,29.68,29.59,8,1,9,0.00
2013-7-13,83.8,61.1,45.1,55.4,42.3,37.8,93,54,22,29.77,29.68,12,2,13,0.00
2013-7-14,83.1,63.3,47.5,57.9,42.7,33.7,93,52,23,29.71,29.56,12,2,13,0.00
2013-7-15,85.5,64.7,48.7,53.5,42.5,31.9,88,49,20,29.62,29.44,15,3,15,0.00
2013-7-16,85.5,68.9,52.7,58.6,45.5,37.9,86,46,27,29.47,29.35,9,2,11,0.00
2013-7-17,77.2,67.2,59.4,56.2,49.6,45.6,82,55,35,29.74,29.44,10,1,10,0.00
2013-7-18,81.3,65.0,56.1,50.9,48.3,44.0,80,57,30,29.80,29.68,11,2,11,0.00
2013-7-19,81.9,63.2,52.9,56.2,50.3,44.5,92,66,31,29.74,29.62,9,2,10,0.00
2013-7-20,85.1,62.6,53.1,55.1,50.7,45.7,92,69,29,29.65,29.53,8,1,10,0.00
2013-7-21,83.8,64.1,52.9,54.6,51.1,46.0,91,66,30,29.53,29.47,8,1,8,0.00
2013-7-22,86.0,65.6,55.4,56.7,51.3,44.9,90,64,28,29.62,29.50,9,1,10,0.00
2013-7-23,86.5,65.7,54.0,57.0,50.0,44.0,92,61,27,29.65,29.53,10,2,11,0.00
2013-7-24,83.8,65.6,53.1,56.8,46.9,42.9,88,54,28,29.62,29.56,11,2,11,0.00
2013-7-25,87.3,65.3,51.6,54.2,45.7,42.4,81,52,26,29.68,29.59,10,2,11,0.00
2013-7-26,83.8,65.5,52.7,52.9,43.7,34.3,81,49,21,29.71,29.65,13,2,13,0.00
2013-7-27,86.0,63.8,50.4,54.1,43.6,37.2,83,51,21,29.71,29.56,10,2,11,0.00
2013-7-28,82.0,63.3,52.7,52.3,46.3,42.4,81,56,29,29.59,29.50,9,1,10,0.00
2013-7-29,82.4,65.1,56.3,49.2,46.3,42.7,77,53,30,29.56,29.50,9,1,11,0.00
2013-7-30,81.7,64.0,52.0,60.0,49.5,44.9,95,63,30,29.68,29.56,10,2,10,0.00
2013-7-31,73.0,62.1,54.1,55.3,51.3,48.2,89,70,44,29.68,29.59,8,1,8,0.00
2013-8-25,70.0,64.0,61.2,53.2,50.2,43.9,73,62,39,29.44,29.44,0,0,0,0.71
2013-8-26,80.1,66.2,58.1,54.8,49.8,40.4,83,59,31,29.53,29.41,0,0,0,0.00
2013-8-27,80.8,67.7,59.7,56.0,50.8,46.3,79,57,32,29.53,29.35,0,0,0,0.00
2013-8-28,83.3,68.3,59.2,64.4,54.3,47.5,92,65,32,29.44,29.38,0,0,0,0.08
2013-8-29,77.7,66.4,61.5,64.1,58.8,52.3,94,79,43,29.53,29.44,0,0,0,0.75
2013-9-1,80.1,71.5,59.2,52.0,50.4,47.9,77,49,34,29.44,29.35,0,0,0,0.43
2013-9-2,79.2,67.1,57.4,59.1,51.1,45.7,89,60,33,29.50,29.44,10,1,11,0.00
2013-9-3,70.9,63.2,58.6,63.2,56.8,52.5,94,81,57,29.59,29.50,8,0,8,0.16
2013-9-4,72.0,62.7,57.4,61.7,56.4,52.6,97,81,53,29.62,29.56,7,0,8,0.00
2013-9-5,69.1,61.8,55.9,64.2,55.9,52.2,98,82,57,29.62,29.50,9,1,9,0.47
2013-9-6,74.3,64.2,59.4,66.3,58.5,53.0,98,83,50,29.68,29.50,6,0,8,1.26
2013-9-7,72.9,65.0,59.5,62.5,55.6,49.7,90,73,45,29.68,29.59,13,1,13,0.00
2013-9-8,75.9,65.0,57.6,61.1,54.8,49.4,96,73,41,29.68,29.59,9,1,9,0.00
2013-9-9,75.0,63.7,56.7,61.7,54.8,49.9,97,76,43,29.65,29.53,9,1,10,0.00
2013-9-10,75.6,63.7,56.1,58.8,55.3,52.6,97,77,46,29.56,29.47,9,1,9,0.00
2013-9-11,84.9,68.8,56.8,63.9,54.2,48.1,97,64,32,29.53,29.44,0,0,0,0.00
2013-9-12,75.0,64.3,57.9,57.9,53.3,49.2,91,70,43,29.56,29.47,9,2,12,0.00
2013-9-13,66.6,61.5,56.3,61.4,56.9,54.6,96,85,70,29.53,29.44,0,0,0,0.00
2013-9-14,69.1,63.9,60.1,61.5,57.2,52.4,94,80,57,29.44,29.32,0,0,0,0.00
2013-9-15,62.8,61.5,60.6,58.2,57.3,56.7,91,86,81,29.32,29.29,0,0,0,0.00
2013-9-23,54.5,51.7,49.3,49.6,48.7,47.4,95,90,79,29.53,29.47,6,0,6,0.16
2013-9-24,63.5,52.7,46.6,56.1,47.6,41.3,98,84,47,29.53,29.41,10,0,11,0.24
2013-9-25,58.5,51.1,42.8,54.7,45.2,39.2,98,82,52,29.59,29.41,11,1,13,0.00
2013-9-26,61.7,49.2,39.7,53.2,42.1,38.5,98,79,45,29.68,29.59,9,1,10,0.00
2013-9-27,56.1,51.6,43.3,51.6,47.3,39.7,94,86,70,29.68,29.41,8,1,11,0.04
2013-9-28,60.1,54.3,49.8,58.5,52.5,48.2,98,93,87,29.41,28.91,12,3,13,0.79
2013-9-29,57.4,52.0,48.9,52.1,47.9,41.7,98,87,61,29.12,28.73,17,4,17,0.43
2013-9-30,60.3,52.0,47.3,51.3,43.5,38.2,93,74,49,29.47,28.97,12,3,15,0.00
2013-10-1,48.7,47.9,47.3,42.0,40.7,39.8,80,76,73,29.47,29.47,14,2,14,0.00
2013-10-5,66.4,55.2,47.3,43.4,40.9,38.1,83,61,36,29.77,29.71,6,0,8,0.32
2013-10-6,75.2,56.9,43.0,55.7,40.4,31.0,98,62,22,29.71,29.44,10,1,13,0.00
2013-10-7,56.7,51.6,49.5,51.8,48.5,40.7,96,90,56,29.59,29.44,10,2,13,0.63
2013-10-8,57.7,48.4,37.8,53.2,43.7,34.0,98,86,46,29.65,29.53,10,1,13,0.28
2013-10-9,59.7,45.3,34.3,51.6,38.0,31.5,98,79,40,29.68,29.53,0,0,0,0.00
2013-10-10,60.1,50.5,42.4,47.6,42.1,38.0,94,75,46,29.62,29.50,0,0,0,0.00
2013-10-11,59.7,50.5,44.4,53.8,44.9,40.9,97,83,52,29.71,29.62,0,0,0,0.00
2013-10-12,58.3,49.4,40.6,49.7,43.1,36.3,96,80,47,29.77,29.62,2,0,4,0.00
2013-10-13,56.7,46.4,38.3,50.9,41.0,35.8,97,83,51,29.91,29.77,0,0,0,0.00
2013-10-14,56.1,43.9,36.0,47.6,39.1,34.8,98,85,51,29.97,29.91,0,0,0,0.00
2013-10-15,59.2,47.0,37.0,52.7,40.9,36.0,98,82,48,29.94,29.74,0,0,0,0.00
2013-10-16,55.6,49.0,40.8,49.1,44.2,38.8,97,84,63,29.77,29.71,0,0,0,0.00
2013-10-17,56.5,49.2,41.7,46.1,42.8,39.0,94,79,56,29.83,29.77,0,0,0,0.00
2013-10-18,54.9,45.3,38.8,49.5,42.4,38.3,98,90,70,29.80,29.71,0,0,0,0.00
2013-10-19,51.6,46.7,41.9,48.5,43.9,41.4,98,90,75,29.77,29.71,0,0,0,0.00
2013-10-20,52.3,47.5,44.6,48.1,44.7,43.3,96,90,79,29.77,29.71,0,0,0,0.00
2013-10-21,52.7,48.3,45.1,48.6,45.8,44.3,98,91,78,29.74,29.65,0,0,0,0.00
2013-10-22,54.0,48.7,45.5,49.7,46.3,44.7,98,91,76,29.68,29.59,0,0,0,0.00
2013-10-23,55.4,47.5,41.2,49.0,44.5,40.4,98,90,71,29.62,29.53,0,0,0,0.00
2013-10-24,52.5,46.4,40.5,49.4,44.5,39.7,98,93,76,29.68,29.56,0,0,0,0.00
2013-10-25,53.6,49.1,44.8,52.6,46.7,40.6,98,92,76,29.88,29.68,0,0,0,0.00
2013-10-26,55.4,50.3,47.7,48.0,44.1,39.5,95,80,59,29.88,29.74,0,0,0,0.00
2013-10-27,56.3,48.3,40.5,50.3,42.7,37.8,96,82,54,29.74,29.44,12,1,15,0.24
2013-10-28,59.4,45.3,36.5,45.9,34.8,27.6,98,72,30,29.50,29.44,10,1,13,0.00
2013-10-29,55.8,40.5,31.1,43.2,31.2,28.5,97,73,37,29.59,29.50,8,0,8,0.00
2013-10-30,58.8,45.8,32.7,43.5,36.3,29.4,93,72,39,29.68,29.59,9,1,9,0.00
2013-10-31,53.2,49.5,46.9,51.6,46.8,40.3,97,91,76,29.80,29.65,6,0,9,0.16
2013-11-1,61.7,53.7,48.6,57.0,48.6,45.0,98,84,58,29.83,29.38,5,0,6,0.00
2013-11-2,52.5,47.1,42.1,50.5,45.1,40.4,98,93,78,29.44,29.03,12,2,17,1.14
2013-11-3,52.7,40.8,32.0,52.0,38.3,29.6,98,91,66,29.65,29.44,5,0,11,0.16
2013-11-4,49.1,38.6,28.4,45.9,32.4,27.3,98,80,51,29.74,29.62,8,0,9,0.08
2013-11-5,50.5,45.0,40.3,48.6,42.7,34.1,98,92,79,29.80,29.56,8,0,9,0.08
2013-11-6,53.8,46.2,39.6,52.5,43.1,39.0,98,89,71,29.85,29.56,10,1,10,0.04
2013-11-7,49.1,47.6,46.2,48.6,45.9,39.8,98,94,78,29.56,29.26,12,2,15,0.71
2013-11-8,55.8,47.6,40.3,51.0,43.0,35.7,98,85,52,29.71,29.53,6,0,8,0.08
2013-11-9,51.6,44.2,36.0,49.7,40.2,35.0,98,87,59,29.71,29.62,4,0,4,0.04
2013-11-10,49.5,46.1,43.9,48.4,44.7,42.5,98,95,87,29.71,29.65,5,0,6,0.12
2013-11-11,58.1,49.6,39.9,52.8,40.5,30.7,98,75,42,29.71,29.56,10,1,13,0.31
2013-11-12,57.7,53.2,48.7,54.7,44.7,30.8,91,75,43,29.91,29.59,8,1,10,0.08
2013-11-13,58.1,52.4,48.2,51.7,45.2,38.1,92,77,53,29.97,29.85,8,0,8,0.00
2013-11-14,49.6,46.7,41.4,48.3,44.8,39.8,98,93,82,29.85,29.59,10,0,10,0.16
2013-11-15,45.9,44.3,42.1,45.3,43.5,35.3,98,97,73,29.62,28.88,27,1,27,0.55
2013-11-16,48.6,42.5,38.5,44.9,37.6,34.0,96,83,67,29.32,28.91,19,0,19,0.16
2013-11-17,51.4,45.4,34.9,43.6,39.3,31.6,94,80,65,29.44,29.29,10,1,17,0.00
2013-11-18,50.5,48.8,46.6,49.6,46.6,42.0,98,92,83,29.44,29.12,7,1,9,0.28
2013-11-19,51.3,44.8,41.2,50.7,42.5,30.3,98,92,54,29.41,29.09,13,2,13,0.35
2013-11-21,37.4,29.1,24.8,21.7,18.3,15.6,79,64,52,30.21,30.18,6,0,6,0.00
2013-11-22,41.2,30.9,23.4,34.0,23.8,18.8,94,76,49,30.18,30.00,6,0,8,0.00
2013-11-23,47.1,35.1,28.2,34.5,27.6,24.1,91,75,44,30.00,29.74,8,0,8,0.00
2013-11-24,45.9,35.3,28.4,40.4,30.9,26.1,98,85,57,29.80,29.71,5,0,6,0.00
2013-11-25,51.4,38.0,31.1,42.1,31.8,26.5,98,80,48,29.85,29.80,6,0,7,0.00
2013-11-26,52.7,40.4,28.8,38.6,30.5,25.7,97,71,39,29.83,29.65,6,0,6,0.00
2013-11-27,50.7,42.3,34.7,37.7,33.6,30.7,89,72,51,29.65,29.50,6,0,6,0.00
2013-11-28,51.6,39.4,32.7,43.4,33.6,30.2,98,81,47,29.74,29.56,6,0,6,0.35
2013-11-29,51.6,44.0,38.7,42.7,36.8,31.4,90,76,56,29.85,29.71,4,0,5,0.00
2013-11-30,49.6,47.0,44.8,46.2,42.5,37.4,94,85,63,29.85,29.62,8,1,11,0.35
2013-12-1,51.6,48.2,38.8,51.1,47.5,38.1,98,97,92,29.62,29.29,15,2,17,0.71
2013-12-2,43.3,37.2,33.4,38.2,32.0,24.5,97,82,49,29.59,29.35,17,1,17,0.00
2013-12-3,36.1,29.7,24.4,33.3,22.9,17.0,94,77,46,29.85,29.59,6,0,6,0.00
2013-12-4,34.7,26.4,21.2,30.5,21.9,14.4,96,84,60,29.88,29.83,5,0,6,0.00
2013-12-5,33.1,24.9,18.5,25.7,15.5,3.8,88,69,42,29.85,29.74,10,1,10,0.00
2013-12-6,31.1,22.0,14.7,15.9,3.9,-1.5,72,46,32,29.80,29.71,15,2,15,0.00
2013-12-7,25.3,15.9,10.0,10.7,0.5,-4.7,71,51,35,29.97,29.77,8,0,8,0.00
2013-12-8,27.0,18.1,11.7,9.2,4.9,-4.7,68,56,42,30.03,29.94,5,0,8,0.00
2013-12-12,43.9,40.6,36.1,40.5,32.5,23.7,92,74,47,29.68,29.59,10,1,12,0.08
2013-12-13,46.0,44.0,41.7,45.1,42.9,39.5,98,96,91,29.94,29.68,5,0,10,0.12
2013-12-14,47.1,45.0,39.6,46.0,42.7,39.0,98,92,77,29.97,29.85,9,0,10,0.00
2013-12-15,48.9,47.0,43.7,47.3,44.2,39.6,98,90,76,30.00,29.85,8,0,8,0.04
2013-12-16,46.0,39.0,31.1,45.5,38.3,30.4,98,97,94,30.03,29.80,0,0,0,0.00
2013-12-17,42.1,37.6,31.1,41.6,37.1,30.6,98,98,98,29.80,29.65,4,0,5,0.00
2013-12-18,43.5,38.3,25.7,42.5,32.9,20.1,98,82,49,29.68,29.56,12,1,14,0.00
2013-12-19,36.7,29.1,22.1,33.5,23.6,18.8,91,80,63,29.88,29.68,6,0,8,0.00
2013-12-20,36.3,33.6,30.6,35.8,30.6,23.6,98,89,74,29.74,29.26,10,1,10,0.51
2013-12-21,43.0,38.9,35.6,42.5,38.3,35.1,98,98,97,29.71,29.38,0,0,0,0.31
2013-12-22,47.8,44.2,39.9,47.3,43.7,39.4,98,98,98,29.83,29.71,6,0,6,0.75
2013-12-23,49.6,46.1,40.3,49.1,42.2,32.0,98,87,61,30.06,29.68,16,2,20,0.31
2013-12-24,46.9,38.6,28.4,43.1,35.0,26.5,95,87,71,30.15,30.06,4,0,5,0.00
2013-12-25,41.4,34.1,26.8,40.3,31.3,25.8,98,90,72,30.09,29.94,6,0,6,0.00
2013-12-26,46.9,37.8,32.9,38.7,32.9,29.7,93,83,60,29.94,29.74,4,0,5,0.00
2013-12-27,43.3,39.0,32.5,42.5,38.3,30.7,98,97,92,29.91,29.65,6,0,8,0.04
2013-12-28,50.7,42.4,36.7,50.0,41.4,34.8,98,96,87,30.06,29.91,3,0,4,0.04
2013-12-29,42.3,39.3,36.7,41.7,38.6,36.2,98,97,95,30.03,29.85,5,0,5,0.00
2013-12-30,46.4,40.3,36.1,45.9,39.5,35.6,98,97,95,29.85,29.65,9,0,11,0.00
2013-12-31,47.3,43.4,38.1,46.5,42.4,37.3,98,96,94,29.91,29.74,0,0,0,0.08
2014-1-1,45.7,39.0,32.0,45.0,38.1,31.5,98,97,94,29.94,29.80,0,0,3,0.00
2014-1-2,49.6,44.5,39.2,46.4,40.7,33.5,98,88,54,29.80,29.44,15,1,17,0.47